DateTimeUTC,F1_A11,F1_S11,BsB_S11,BsG_S11,BsR_S11,BbsB_S11,BbsG_S11,BbsR_S11,BaB_A11,BaG_A11,BaR_A11,Tu_S11,T_S11,Uu_S11,U_S11,P_S11,T1_A11
2021-08-31T07:00:00Z,00000200,21000000,,,,,,,0000.45,0000.29,0000.05,17.8,25.0,,00.0,0673.2,30.9
2021-08-31T07:01:00Z,00000200,21000000,,,,,,,-000.39,-000.12,-000.29,17.8,25.0,,00.0,0673.2,30.9
2021-08-31T07:02:00Z,00000200,21000000,,,,,,,-000.27,-000.22,0000.15,17.9,25.1,,00.0,0673.2,30.9
2021-08-31T07:03:00Z,00000200,61000000,,,,,,,-000.16,0000.03,-000.54,17.9,25.1,,00.0,0673.2,30.9
2021-08-31T07:04:00Z,00000200,41000000,0000.94,-000.03,0000.37,0000.07,-000.19,0000.04,0000.14,-000.35,0000.51,18.4,25.0,,00.0,0674.2,31.0
2021-08-31T07:05:00Z,00000200,01000000,0000.66,0000.25,-000.03,0000.39,0000.12,0000.07,-000.39,0000.10,-000.16,18.5,25.0,,00.0,0674.2,31.0
2021-08-31T07:06:00Z,00000200,01000000,0001.18,0000.04,-000.02,0000.33,0000.07,0000.17,-000.15,-000.16,-000.48,18.5,25.0,,00.0,0674.2,31.0
2021-08-31T07:07:00Z,00000200,01000000,0000.49,0000.01,0000.12,0000.47,0000.12,0000.38,0000.37,0000.30,0000.50,18.4,25.0,,00.0,0674.2,31.0
2021-08-31T07:08:00Z,00000200,01000000,0000.53,0000.08,0000.22,0000.67,0000.14,0000.00,0000.14,-000.04,-000.14,18.4,24.9,,00.0,0674.2,30.9
2021-08-31T07:09:00Z,00000200,01000000,0000.85,0000.09,0000.21,0000.58,0000.00,-000.11,-000.17,0000.31,-000.05,18.3,24.9,,00.0,0674.2,30.9
2021-08-31T07:10:00Z,00000200,01000000,0000.21,0000.38,-000.09,0000.70,0000.14,0000.21,0000.49,0000.05,0000.06,18.2,24.8,,00.0,0674.2,30.9
2021-08-31T07:11:00Z,00000200,01000000,0000.57,-000.01,0000.13,0000.40,-000.08,0000.09,-000.16,0000.26,0000.29,18.1,24.8,,00.0,0674.2,30.9
2021-08-31T07:12:00Z,00000200,01000000,0000.57,-000.01,0000.15,-000.09,-000.07,0000.11,0000.19,-000.33,-000.07,18.0,24.7,,00.0,0674.2,30.9
2021-08-31T07:13:00Z,00000200,01000000,0000.57,-000.06,0000.14,0000.33,0000.12,-000.15,0000.12,0000.01,0000.14,18.0,24.7,,00.0,0674.1,30.9
2021-08-31T07:14:00Z,00000200,01000000,0000.57,0000.18,0000.33,0000.78,0000.03,0000.12,0000.33,0000.60,0000.54,18.0,24.7,,00.0,0674.1,30.9
2021-08-31T07:15:00Z,00000200,01000000,-000.06,0000.20,0000.07,0000.40,0000.24,0000.03,0000.29,0000.16,-000.28,18.0,24.7,,00.0,0674.1,30.9
2021-08-31T07:16:00Z,00000200,01000000,0000.53,0000.22,-000.08,0000.28,-000.04,0000.19,0000.45,0000.12,0000.27,18.1,24.7,,00.0,0674.1,30.9
2021-08-31T07:17:00Z,00000200,01000000,0000.92,-000.20,0000.08,0000.99,0000.01,0000.03,-000.07,0000.25,0000.43,18.2,24.8,,00.0,0674.1,31.0
2021-08-31T07:18:00Z,00000200,01000000,0000.41,-000.21,-000.15,0000.17,0000.27,-000.12,0000.32,0000.07,0000.10,18.3,24.8,,00.0,0674.1,30.9
2021-08-31T07:19:00Z,00000200,01000000,0000.19,-000.02,-000.07,0000.02,-000.23,-000.11,-000.09,-000.06,-000.28,18.5,24.9,,00.0,0674.2,30.9
2021-08-31T07:20:00Z,00000200,01000000,0000.94,0000.49,0000.11,0000.68,-000.15,0000.27,-000.10,0000.03,0000.26,18.6,24.9,,00.0,0674.2,31.0
2021-08-31T07:21:00Z,00000200,01000000,0001.51,0000.19,0000.06,0000.69,0000.08,0000.30,0003.07,0002.68,0002.13,18.6,25.0,,00.0,0674.2,31.0
2021-08-31T07:22:00Z,00000200,01000000,-000.22,0000.04,0000.09,0000.88,0000.19,-000.07,-002.60,-001.97,-001.63,18.6,25.0,,00.0,0674.2,31.0
2021-08-31T07:23:00Z,00000200,01000000,0000.67,0000.17,0000.07,0000.39,0000.32,0000.39,0000.15,0000.33,-000.14,18.6,25.0,,00.0,0674.2,30.9
2021-08-31T07:24:00Z,00000200,01000000,0000.54,0000.02,-000.06,0000.42,-000.01,-000.07,0000.21,0000.16,0000.07,18.5,24.9,,00.0,0674.2,30.9
2021-08-31T07:25:00Z,00000200,01000000,0001.09,0000.21,0000.14,-000.33,-000.02,-000.00,-000.05,-000.29,-000.03,18.4,24.9,,00.0,0674.2,30.9
2021-08-31T07:26:00Z,00000200,01000000,0000.13,-000.16,0000.05,0000.55,0000.45,0000.18,-000.11,-000.35,-000.21,18.3,24.8,,00.0,0674.2,30.9
2021-08-31T07:27:00Z,00000200,01000000,0000.28,0000.02,0000.13,0000.38,0000.19,-000.21,0000.04,0000.37,0000.19,18.2,24.8,,00.0,0674.2,30.9
2021-08-31T07:28:00Z,00000200,01000000,0000.79,0000.13,0000.22,0000.78,0000.07,0000.26,-000.20,-000.29,-000.15,18.2,24.8,,00.0,0674.3,30.9
2021-08-31T07:29:00Z,00000200,01000000,0000.34,0000.08,0000.08,0000.60,0000.23,-000.34,0000.59,0000.35,0000.52,18.2,24.7,,00.0,0674.3,30.9
2021-08-31T07:30:00Z,00000200,01000000,0000.83,0000.07,0000.16,0000.69,-000.00,0000.03,0000.25,0000.22,0000.08,18.2,24.7,,00.0,0674.2,30.9
2021-08-31T07:31:00Z,00000200,01000000,0000.43,0000.34,0000.13,0000.26,0000.19,-000.12,0000.14,0000.45,0000.42,18.3,24.8,,00.0,0674.2,30.9
2021-08-31T07:32:00Z,00000200,01000000,0000.93,0000.02,0000.03,0000.12,0000.27,0000.06,0000.16,-000.25,-000.16,18.4,24.8,,00.0,0674.3,30.9
2021-08-31T07:33:00Z,00000200,01000000,0000.95,0000.22,0000.14,0000.77,-000.25,0000.31,0000.38,0000.74,0000.05,18.5,24.9,,00.0,0674.3,30.9
2021-08-31T07:34:00Z,00000200,01000000,0000.57,-000.23,0000.34,0000.55,0000.00,0000.03,-000.13,-000.24,0000.15,18.6,24.9,,00.0,0674.3,31.0
2021-08-31T07:35:00Z,00000200,01000000,0000.28,0000.04,0000.15,0000.16,0000.17,0000.25,0000.38,0000.40,0000.15,18.7,25.0,,00.0,0674.3,31.0
2021-08-31T07:36:00Z,00000200,01000000,0000.05,0000.42,0000.07,0000.00,0000.26,0000.04,0000.03,0000.19,0000.08,18.7,25.0,,00.0,0674.3,31.0
2021-08-31T07:37:00Z,00000200,01000000,0000.34,0000.17,0000.22,0000.40,0000.09,-000.14,-000.12,-000.13,0000.12,18.7,25.0,,00.0,0674.2,31.0
2021-08-31T07:38:00Z,00000200,01000000,0000.65,0000.01,-000.12,-000.27,0000.09,-000.20,0000.02,0000.02,-000.27,18.6,25.0,,00.0,0674.3,30.9
2021-08-31T07:39:00Z,00000200,01000000,0000.40,-000.08,0000.49,-000.25,0000.07,0000.09,0000.36,0000.18,0000.14,18.5,24.9,,00.0,0674.3,30.9
2021-08-31T07:40:00Z,00000200,01000000,0000.76,0000.08,0000.24,-000.04,0000.32,-000.03,0000.02,0000.19,0000.35,18.4,24.9,,00.0,0674.3,30.9
2021-08-31T07:41:00Z,00000200,01000000,0000.64,-000.08,-000.00,0000.81,0000.24,0000.05,0000.26,0000.20,-000.17,18.3,24.8,,00.0,0674.3,30.9
2021-08-31T07:42:00Z,00000200,01000000,0000.63,-000.10,-000.01,0001.07,0000.13,0000.06,0000.19,-000.02,0000.17,18.3,24.8,,00.0,0674.3,30.9
2021-08-31T07:43:00Z,00000200,01000000,0000.63,-000.12,0000.27,-000.04,0000.06,0000.26,-000.56,-000.74,-000.43,18.2,24.8,,00.0,0674.3,30.9
2021-08-31T07:44:00Z,00000200,01000000,0000.59,-000.11,0000.27,0000.64,0000.23,0000.06,0000.38,0000.36,0000.14,18.2,24.7,,00.0,0674.3,30.9
2021-08-31T07:45:00Z,00000200,01000000,0000.33,0000.03,0000.08,0000.33,-000.04,0000.09,-000.39,-000.29,-000.12,18.2,24.7,,00.0,0674.3,30.9
2021-08-31T07:46:00Z,00000200,01000000,0001.20,0000.26,-000.12,0000.67,0000.14,-000.06,-000.15,-000.41,-000.34,18.3,24.8,,00.0,0674.3,30.9
2021-08-31T07:47:00Z,00000200,01000000,0001.10,0000.27,0000.43,0000.37,-000.01,0000.25,-000.20,-000.19,0000.29,18.4,24.8,,00.0,0674.3,30.9
2021-08-31T07:48:00Z,00000200,01000000,0000.14,0000.05,0000.23,-000.23,0000.53,0000.17,-000.48,-000.32,-000.35,18.5,24.9,,00.0,0674.3,31.0
2021-08-31T07:49:00Z,00000200,01000000,0000.44,0000.29,0000.12,0000.18,0000.02,0000.15,0000.12,0000.43,0000.03,18.6,24.9,,00.0,0674.3,30.9
2021-08-31T07:50:00Z,00000200,01000000,0000.53,0000.08,0000.03,0000.22,0000.37,0000.14,-000.18,-000.30,-000.53,18.6,24.9,,00.0,0674.3,30.9
2021-08-31T07:51:00Z,00000200,01000000,0000.33,-000.17,-000.08,0000.40,-000.25,-000.09,-000.15,0000.04,0000.37,18.5,24.9,,00.0,0674.3,30.9
2021-08-31T07:52:00Z,00000200,01000000,0000.74,0000.02,0000.18,0000.74,0000.21,0000.20,0000.39,0000.33,0000.06,18.4,24.9,,00.0,0674.3,30.9
2021-08-31T07:53:00Z,00000200,01000000,0001.02,0000.22,0000.12,-000.40,0000.10,0000.12,-000.09,-000.38,-000.19,18.3,24.8,,00.0,0674.3,30.9
2021-08-31T07:54:00Z,00000200,01000000,0000.98,0000.28,0000.09,-000.01,0000.04,-000.14,0000.21,0000.30,0000.06,18.3,24.8,,00.0,0674.3,30.9
2021-08-31T07:55:00Z,00000200,01000000,0001.19,-000.06,0000.04,-000.12,0000.09,0000.23,-000.49,-000.54,0000.10,18.2,24.7,,00.0,0674.3,30.9
2021-08-31T07:56:00Z,00000200,01000000,0001.19,-000.16,0000.22,0001.04,0000.14,0000.13,0000.32,0000.32,-000.28,18.1,24.7,,00.0,0674.3,30.9
2021-08-31T07:57:00Z,00000200,41000000,,,,,,,-000.21,-000.19,-000.16,18.1,24.7,,00.0,0674.2,30.9
2021-08-31T07:58:00Z,00000200,61000000,,,,,,,-000.14,-000.16,-000.16,17.7,24.8,,00.0,0673.3,30.9
2021-08-31T07:59:00Z,00000200,21000000,,,,,,,-000.01,-000.11,0000.30,17.7,24.9,,00.0,0673.3,30.9
